User: anonymous
Location: Caltech
(34.1382°N, 118.1253°W)
Time: 05:11:05
(UTC-07:00)
Language:

OPAL - Orbit

View from above orbital plane
View from above orbital plane
View from above satellite
View from above satellite

Ground track
Ground track

The orbit data is extracted from the following two-line orbital elements,

1 26063U 00004C   14264.07712513  .00000123  00000-0  61866-4 0   644
2 26063 100.2244 067.8216 0036099 247.2438 112.4926 14.36399009767783
Epoch (UTC): 21 September 2014 01:51:03
Eccentricity: 0.0036099
inclination: 100.2244°
perigee height: 744 km
apogee height: 796 km
right ascension of ascending node: 67.8216°
argument of perigee: 247.2438°
revolutions per day: 14.36399009
mean anomaly at epoch: 112.4926°
orbit number at epoch: 76778

The dashed part of the orbit path shows where the satellite is in the earth's shadow,  

DLR